Zurück zum Katalog

COSMOS 1275 DEB

AktivPO
NORAD 17615·DEBRIS·🇷🇺 Russia

Gestartet Jun 4, 1981 von Plesetsk Cosmodrome

Loading…

Nächste Überflüge (nächste 24 Stunden)

TLE

AktuellSource: Space-Track

Epoche: Sep 14, 2026, 20:05 UTC

1 17615U 81053KJ  26257.83734911  .00001791  00000-0  86408-3 0  9992
2 17615  82.8539  36.2832 0039981 102.1725  49.4276 14.17770756105899

Verfolge COSMOS 1275 DEB in Echtzeit mit AllMySat

Download on the App Store